Flag for Germany Weather past 2 weeks in Achern, Baden-Württemberg, Germany

Now
73 °F

Scattered clouds.


Feels Like: 77 °F
Forecast: 59 / 74 °F
Wind: 14 mph from Southwest

Location: Karlsruhe - Baden Wurttemberg

Current Time: Jul 13, 2014 at 12:35:07 PM

Latest Report: Jul 13, 2014 at 12:20 PM


Visibility: N/A

Pressure: 29.86 "Hg

Humidity: 50%

Dew point: 54 °F

Location of AchernLocation

Historic Weather in Achern — Graph

°F

Achern temperature yesterday

Maximum temperature yesterday: 73 °F (at 2:20 PM)
Minimum temperature yesterday: 61 °F (at 4:20 AM)
Average temperature yesterday: 67 °F

Past Weeks' High & Low Weather Summary

 TemperatureHumidityPressure
High90 °F (Jul 6, 6:20 PM)94% (Jun 30, 3:20 AM)30.24 "Hg (Jun 30, 3:20 AM)
Low48 °F (Jul 1, 4:50 AM)22% (Jul 3, 4:20 PM)29.71 "Hg (Jun 29, 3:50 AM)
Average66 °F67%29.93 "Hg
* Reported Jun 28 11:04 AM — Jul 13 11:20 AM, Achern, Weather by CustomWeather, © 2014

Note: Actual official high and low records may vary slightly from our data, if they occured in-between our weather recording intervals... More about our weather records

Advertising

Achern weather history for previous 24 hours

 ConditionsComfort  
Time TempWeatherWind HumidityBarometerVisibility
11:20 AM
Jul 13
72 °FScattered clouds.13 mph57%29.86 "HgN/A
10:50 AM70 °FSunny.14 mph60%29.86 "Hg10 mi
10:20 AM68 °FPassing clouds.13 mph69%29.89 "HgN/A
9:50 AM66 °FPassing clouds.12 mph73%29.89 "HgN/A
9:20 AM66 °FPartly sunny.13 mph73%29.89 "HgN/A
8:50 AM64 °FBroken clouds.12 mph78%29.89 "HgN/A
8:20 AM64 °FBroken clouds.13 mph78%29.89 "HgN/A
7:50 AM63 °FBroken clouds.10 mph83%29.89 "HgN/A
7:20 AM63 °FBroken clouds.10 mph83%29.89 "HgN/A
6:50 AM63 °FBroken clouds.10 mph83%29.89 "HgN/A
6:20 AM63 °FPartly cloudy.8 mph83%29.89 "HgN/A
5:50 AM63 °FPassing clouds.8 mph83%29.92 "HgN/A
5:20 AM63 °FPassing clouds.8 mph83%29.92 "HgN/A
4:50 AM63 °FPassing clouds.7 mph83%29.92 "HgN/A
4:20 AM63 °FPartly cloudy.5 mph83%29.92 "HgN/A
3:50 AM63 °FPassing clouds.6 mph83%29.92 "HgN/A
3:20 AM64 °FPassing clouds.5 mph78%29.92 "HgN/A
12:20 AM64 °FPassing clouds.6 mph78%29.95 "HgN/A
11:50 PM
Jul 12
64 °FPassing clouds.7 mph78%29.92 "HgN/A
11:20 PM66 °FPassing clouds.6 mph73%29.95 "HgN/A
10:50 PM66 °FPassing clouds.6 mph73%29.95 "HgN/A
10:20 PM66 °FBroken clouds.5 mph73%29.92 "HgN/A
9:50 PM66 °FPartly sunny.5 mph73%29.92 "HgN/A
9:20 PM68 °FPartly sunny.5 mph69%29.92 "HgN/A
8:50 PM68 °FPartly sunny.5 mph64%29.92 "HgN/A
8:20 PM68 °FPartly sunny.3 mph64%29.92 "HgN/A
7:20 PM70 °FScattered clouds.6 mph60%29.89 "HgN/A
6:50 PM70 °FScattered clouds.12 mph60%29.89 "HgN/A
6:20 PM72 °FScattered clouds.6 mph65%29.89 "HgN/A
5:50 PM73 °FThundershowers. Broken clouds.8 mph65%29.89 "HgN/A
5:20 PM70 °FThundershowers. Partly sunny.3 mph78%29.89 "HgN/A
4:50 PM73 °FScattered clouds.8 mph61%29.89 "HgN/A
4:20 PM72 °FBroken clouds.8 mph65%29.89 "HgN/A
3:50 PM68 °FScattered showers. Broken clouds.8 mph73%29.89 "HgN/A
3:20 PM70 °FScattered showers. Broken clouds.9 mph73%29.89 "Hg6 mi
2:50 PM73 °FScattered showers. Broken clouds.8 mph61%29.89 "HgN/A
2:20 PM73 °FScattered clouds.8 mph65%29.92 "HgN/A
1:50 PM70 °FScattered clouds.6 mph69%29.92 "HgN/A
1:20 PM70 °FScattered showers. Partly sunny.6 mph73%29.92 "Hg5 mi
12:50 PM70 °FScattered showers. Partly sunny.3 mph69%29.92 "Hg6 mi
12:20 PM68 °FScattered showers. Partly sunny.3 mph73%29.92 "Hg5 mi
Weather by CustomWeather, © 2014

See weather overviewHow to use our weather pages